This is the latest recevied weather packets stored in our database for station/object IK2ILW-6. If no packets are shown the sender has not sent any weather packets the latest 10 day(s).
| Time | Temp. | Humidity | Pressure | Rain* | Wind** | Luminosity | Snow |
|---|---|---|---|---|---|---|---|
| 1777756288 | 7.22° C | 59% | 1024.1 hPa | 0 mm | - | 0 W/m² | - |
| 1777755396 | 6.67° C | 60% | 1024.3 hPa | 0 mm | - | 0 W/m² | - |
| 1777754202 | 7.78° C | 62% | 1024.4 hPa | 0 mm | - | 0 W/m² | - |
| 1777753893 | 7.78° C | 61% | 1024.4 hPa | 0 mm | - | 0 W/m² | - |
| 1777753596 | 7.78° C | 62% | 1024.4 hPa | 0 mm | - | 0 W/m² | - |
| 1777753300 | 7.78° C | 62% | 1024.3 hPa | 0 mm | - | 0 W/m² | - |
| 1777752689 | 7.78° C | 65% | 1024.4 hPa | 0 mm | - | 0 W/m² | - |
| 1777752389 | 7.78° C | 61% | 1024.4 hPa | 0 mm | - | 0 W/m² | - |
| 1777752093 | 7.78° C | 59% | 1024.4 hPa | 0 mm | - | 0 W/m² | - |
| 1777751798 | 7.78° C | 61% | 1024.4 hPa | 0 mm | - | 0 W/m² | - |
| 1777751483 | 7.78° C | 65% | 1024.4 hPa | 0 mm | - | 0 W/m² | - |
| 1777751186 | 7.22° C | 67% | 1024.4 hPa | 0 mm | - | 0 W/m² | - |
| 1777750592 | 7.22° C | 69% | 1024.4 hPa | 0 mm | - | 0 W/m² | - |
| 1777750293 | 7.22° C | 72% | 1024.4 hPa | 0 mm | - | 0 W/m² | - |
| 1777749997 | 7.22° C | 74% | 1024.5 hPa | 0 mm | - | 0 W/m² | - |
| 1777749685 | 7.22° C | 74% | 1024.5 hPa | 0 mm | - | 0 W/m² | - |
| 1777749389 | 7.22° C | 73% | 1024.5 hPa | 0 mm | - | 0 W/m² | - |
| 1777749093 | 7.78° C | 73% | 1024.4 hPa | 0 mm | - | 0 W/m² | - |
| 1777748797 | 7.78° C | 73% | 1024.4 hPa | 0 mm | - | 0 W/m² | - |
| 1777748187 | 7.22° C | 73% | 1024.4 hPa | 0 mm | - | 0 W/m² | - |
| 1777747593 | 7.78° C | 73% | 1024.3 hPa | 0 mm | - | 0 W/m² | - |
| 1777747001 | 7.78° C | 72% | 1024.2 hPa | 0 mm | - | 0 W/m² | - |
| 1777745493 | 8.33° C | 73% | 1024 hPa | 0 mm | - | 12 W/m² | - |
| 1777743995 | 8.89° C | 70% | 1024 hPa | 0 mm | - | 44 W/m² | - |
| 1777743390 | 8.89° C | 70% | 1024.1 hPa | 0 mm | - | 70 W/m² | - |
* Rain latest hour (hover to see other rain measurements)
** Current wind speed in m/s (hover to see current wind gust speed)